Theta_e
330 332 333 335 338 337 337 338 340 340 345 349 352 352 351 354 351 350 350 347 345 344 347 346 345 344 343 345 346 346 345 347 345 343 341 343 344 346 345 345 342 348 353 352
328 331 331 331 333 334 337 338 339 337 345 346 348 349 350 352 352 350 349 348 347 345 346 348 346 345 345 346 346 347 347 347 347 345 343 343 345 345 345 346 347 349 352 353
328 330 330 330 331 333 336 336 337 334 334 340 345 348 350 349 351 350 348 348 347 345 347 348 346 346 345 347 347 346 349 348 348 346 349 350 347 345 348 345 348 351 352 351
329 328 329 328 330 332 335 334 333 332 335 347 355 348 350 349 351 351 351 349 348 347 346 346 346 345 345 346 348 347 348 350 348 348 348 348 347 345 342 345 345 348 350 351
331 328 328 329 328 331 334 332 333 334 338 340 340 348 347 344 347 350 351 351 349 347 345 346 347 346 345 345 348 348 349 350 349 349 348 349 348 347 343 343 349 348 350 352
327 328 328 327 328 330 332 331 336 337 338 338 339 343 348 348 344 347 347 349 349 348 345 346 346 346 345 345 346 348 348 350 350 350 352 351 347 349 346 346 349 343 348 348
328 326 327 324 326 330 332 331 337 341 341 342 340 340 338 340 339 342 345 345 348 348 346 346 347 346 346 346 346 347 349 350 350 351 351 350 351 351 351 348 345 344 344 344
329 329 326 325 325 329 330 332 334 336 334 334 337 337 338 338 337 340 342 341 344 348 347 346 347 346 347 347 346 347 351 352 351 351 351 350 350 348 349 348 346 344 343 343
329 328 327 325 325 328 332 332 331 331 330 331 332 335 336 338 339 341 342 343 343 347 347 346 347 347 347 346 347 347 351 353 352 351 352 352 353 351 349 346 348 347 349 347
329 330 328 326 325 327 329 331 330 330 331 332 332 333 342 340 341 343 344 344 345 346 346 346 347 348 346 347 347 348 349 353 352 350 352 352 353 352 353 351 350 350 349 348
329 329 330 329 326 326 328 330 330 330 331 332 332 342 338 339 341 345 344 346 346 344 345 347 347 347 346 347 346 348 349 353 353 352 351 351 352 352 352 351 352 353 351 352
331 330 332 331 329 327 327 328 329 331 332 331 332 334 337 337 341 343 346 348 345 342 344 346 347 347 348 349 349 349 350 350 346 350 351 351 352 353 352 351 351 352 353 352
330 331 332 333 331 329 327 328 330 330 330 333 333 336 337 336 336 343 346 348 346 346 349 348 348 349 349 351 349 346 351 350 349 351 352 351 351 352 352 351 351 351 352 353
330 330 332 333 333 331 329 328 329 330 331 331 331 334 336 336 337 344 345 348 348 350 351 350 349 350 350 351 350 351 352 352 352 353 353 352 353 354 353 353 353 353 354 352
330 330 331 331 331 331 330 329 328 329 330 331 331 332 335 337 338 344 347 346 348 352 353 352 351 351 351 352 353 353 352 352 353 354 353 353 354 355 355 355 355 354 354 355
333 335 332 333 331 331 330 331 329 329 330 330 331 332 334 337 338 345 348 346 349 351 351 352 352 354 353 353 353 353 353 352 352 353 354 353 355 356 357 356 356 354 353 356
337 337 336 334 332 332 333 331 330 330 330 330 332 333 337 338 339 346 350 345 348 349 349 350 353 354 353 353 353 353 353 353 353 354 354 354 355 356 356 356 356 355 355 353
336 338 337 337 334 337 334 332 331 331 330 331 331 332 334 338 339 345 348 345 347 348 348 348 351 352 352 353 354 355 355 355 355 355 354 355 355 355 355 354 354 354 353 352
333 338 340 338 337 336 334 333 334 335 334 332 332 332 337 336 339 345 347 343 346 347 347 346 344 345 345 348 353 355 355 356 355 355 354 354 355 355 354 354 353 351 349 350
329 334 338 341 336 338 334 333 333 335 337 337 336 332 333 338 335 340 348 343 344 345 346 344 342 343 344 347 352 354 355 357 356 356 355 355 354 354 354 352 351 349 350 349
333 335 344 342 342 335 334 333 334 341 339 338 338 339 337 339 338 344 346 344 344 345 346 343 345 346 348 350 352 353 354 353 352 352 352 351 350 348 346 345 344 343 344 343
331 341 341 343 343 343 337 336 338 344 341 340 341 340 343 344 341 346 344 345 345 347 346 347 347 350 350 351 351 349 347 347 348 348 348 348 348 345 345 346 346 346 345 345
330 337 337 341 336 335 333 337 341 339 342 342 341 339 339 340 343 343 340 346 346 348 347 346 348 349 352 351 346 344 346 348 348 348 348 348 348 348 346 346 347 346 344 344
337 335 339 340 339 340 340 337 338 337 339 339 339 339 340 339 343 343 347 347 348 348 349 347 349 351 353 349 346 347 350 347 346 346 346 346 346 348 346 345 343 342 338 337
334 335 338 335 335 337 339 336 335 335 333 334 334 337 339 340 340 345 347 349 350 350 348 350 351 353 352 348 346 344 346 345 343 344 344 343 343 346 342 344 339 337 338 339
327 331 337 336 336 338 334 333 334 334 332 332 330 335 339 339 340 343 348 349 351 351 350 353 353 353 347 345 341 341 342 341 341 341 341 340 339 338 337 337 336 338 338 336
Wind_Speed
16 15 15 16 14 9 8 10 3 5 5 5 9 9 11 15 17 14 16 17 17 16 16 14 15 14 16 15 15 14 13 12 15 12 11 11 12 10 8 9 9 7 4 5
15 16 17 16 9 8 11 12 8 3 4 7 12 11 11 15 17 18 21 19 17 17 12 18 18 19 17 17 16 16 16 15 13 14 15 14 11 10 12 11 11 9 7 5
17 15 13 18 8 14 14 14 7 6 9 12 12 16 15 14 17 18 18 17 17 17 21 19 19 21 20 20 19 19 19 18 15 16 10 11 12 11 12 14 10 11 10 8
16 16 15 11 12 15 17 5 5 11 12 2 19 8 13 14 16 19 21 19 19 18 17 18 19 20 21 21 20 20 21 20 18 15 14 12 11 9 9 12 13 14 11 9
15 14 18 16 15 17 16 5 8 11 13 17 13 9 5 9 12 13 20 23 22 19 16 18 17 22 22 22 22 21 21 20 20 19 15 14 15 7 11 10 18 11 11 7
18 10 10 15 16 16 8 8 12 14 12 11 10 9 11 10 3 9 14 18 22 23 19 20 23 23 23 23 22 23 22 22 21 19 16 16 14 10 9 11 12 13 13 13
16 19 17 11 16 18 16 15 13 12 11 8 9 4 3 7 10 5 9 13 18 22 25 23 20 21 24 26 23 24 23 22 22 21 20 17 13 11 8 9 11 11 15 14
12 16 22 17 20 16 13 19 15 8 8 4 11 6 4 6 4 5 6 5 11 19 20 22 23 27 25 21 24 23 26 23 22 21 19 18 14 14 12 12 12 13 13 12
12 11 7 16 18 20 18 16 19 18 15 11 9 7 6 9 3 10 7 5 7 16 18 21 22 24 26 27 26 24 24 22 21 20 19 18 16 16 15 16 15 14 11 6
19 12 5 11 15 20 21 13 11 11 12 12 9 10 9 6 2 10 10 9 7 13 18 20 19 27 29 28 28 25 23 23 22 21 19 19 18 16 14 11 12 11 10 12
18 16 15 10 15 19 16 18 15 18 12 9 11 6 4 8 2 10 11 8 9 10 15 17 19 29 29 29 30 26 25 24 22 21 20 21 20 19 17 17 15 14 14 13
15 16 16 21 14 18 22 22 21 12 15 10 13 7 14 10 4 5 9 8 5 5 13 16 17 27 25 21 22 23 26 25 22 23 20 21 20 19 19 18 17 16 15 15
13 15 15 20 16 13 20 24 22 21 19 17 12 2 10 6 4 6 8 9 7 7 11 14 17 16 23 23 23 27 26 28 24 21 20 22 22 21 21 19 18 17 16 16
11 18 14 16 17 15 21 19 19 20 15 15 14 8 4 5 10 11 7 11 10 10 12 13 13 14 20 21 21 21 19 21 21 20 20 22 21 21 21 20 19 18 18 18
17 20 20 23 24 21 18 19 23 23 20 17 14 13 10 19 13 14 11 12 12 13 13 13 14 14 18 20 20 21 21 22 23 19 17 17 18 18 17 17 17 17 17 18
12 17 19 23 26 20 20 21 26 25 22 18 18 11 4 7 11 13 14 14 14 14 14 13 13 15 18 20 22 23 23 24 21 19 18 17 17 16 17 16 16 19 17 17
16 15 17 22 22 23 21 22 17 18 16 15 17 14 17 16 11 15 16 16 16 15 14 14 13 14 17 20 21 21 20 19 19 18 17 16 16 16 15 13 13 15 15 17
18 18 14 16 18 25 20 20 20 21 19 17 19 14 18 3 10 14 17 17 17 16 15 14 13 17 18 19 19 18 18 17 17 18 16 14 15 15 14 13 14 14 15 15
20 13 15 16 16 21 23 24 9 17 13 12 15 16 13 6 15 16 18 19 17 18 15 16 17 17 17 17 16 16 16 16 16 16 16 15 15 14 13 13 13 15 15 16
25 17 13 16 21 28 19 25 21 21 11 6 13 14 17 17 7 9 20 21 20 20 21 20 20 19 18 18 18 17 15 14 13 13 12 12 11 12 11 10 10 10 11 12
15 19 17 18 15 17 15 4 10 17 9 8 4 6 11 8 2 12 22 24 22 22 24 24 22 21 21 21 19 17 15 13 11 11 11 10 10 9 8 7 7 8 9 12
14 4 7 17 16 20 17 8 17 3 11 11 13 9 5 8 4 10 8 23 24 22 26 26 23 22 21 20 18 16 13 12 11 11 12 12 11 10 11 8 9 10 10 11
15 8 5 6 10 12 5 11 4 12 14 7 11 9 5 6 9 10 19 21 21 21 26 27 24 23 20 18 15 14 12 12 12 11 11 10 10 9 8 8 10 10 15 16
4 9 6 14 7 11 20 3 10 11 9 7 8 8 9 8 10 8 12 18 18 21 24 25 25 23 20 17 15 12 11 10 9 9 10 11 11 11 11 12 14 15 13 12
8 3 10 14 11 3 12 11 11 8 8 12 7 10 7 8 7 9 10 17 18 21 25 26 24 23 21 18 14 11 10 9 8 7 8 9 11 10 11 13 13 13 10 9
12 11 7 10 3 5 2 20 11 5 9 9 10 8 4 6 2 9 7 14 19 21 24 24 24 24 21 18 15 12 10 9 7 6 7 8 8 8 10 11 11 13 14 10
Wind_Direction
212 237 238 244 236 282 329 280 298 73 91 254 240 249 199 172 192 204 204 217 217 194 154 183 172 170 162 163 165 162 148 151 155 169 165 163 177 166 187 198 193 193 211 198
242 225 250 254 270 291 267 272 262 161 196 245 256 249 219 179 203 197 204 212 216 187 177 171 202 172 172 170 173 172 164 169 177 163 176 173 188 193 192 184 184 198 202 212
235 233 214 246 243 237 243 262 279 314 284 240 263 251 224 201 191 197 202 210 208 213 182 186 186 178 181 174 178 180 177 176 196 183 160 181 204 230 197 185 185 200 206 205
243 244 246 250 248 243 252 13 353 287 271 245 240 278 244 165 193 198 194 204 216 203 191 193 182 184 184 178 182 179 184 182 191 195 180 197 206 186 179 185 191 190 207 209
241 235 241 234 247 223 256 64 273 280 276 277 262 278 151 243 186 197 204 197 207 208 205 184 183 188 189 179 180 179 183 185 192 198 196 195 218 250 198 197 151 180 191 216
255 254 242 252 226 250 230 267 245 247 255 267 204 237 111 237 203 180 187 201 199 190 206 211 184 180 188 179 182 177 182 185 189 193 198 203 221 223 251 195 163 196 201 204
222 242 238 220 249 224 223 237 239 227 232 314 169 246 190 186 204 182 191 188 197 188 186 206 183 191 186 179 185 176 180 187 191 191 196 203 219 222 205 229 211 223 214 205
225 217 213 220 233 217 219 235 252 272 269 340 352 270 137 319 57 161 187 201 186 190 191 195 185 192 175 182 186 185 175 188 191 194 195 196 206 214 223 215 236 222 241 233
278 240 233 209 213 245 211 216 258 287 285 264 274 207 91 46 319 163 170 146 197 181 189 193 179 166 180 192 187 191 175 188 194 199 197 196 200 223 214 218 223 229 258 257
258 265 195 199 214 220 243 250 226 234 264 278 257 225 99 160 216 161 167 169 171 185 189 185 179 173 190 190 191 192 183 188 195 200 201 207 203 213 226 222 227 241 250 250
237 257 269 193 208 227 209 240 253 275 266 301 243 99 101 310 58 164 176 132 170 188 189 187 184 176 190 182 195 187 185 187 192 203 198 209 210 209 215 221 220 227 234 238
231 241 246 254 218 220 243 218 231 240 236 264 300 304 157 243 155 179 130 124 159 182 181 189 186 176 177 184 184 185 177 188 196 204 201 205 215 214 207 219 227 221 228 222
277 242 251 256 239 212 217 238 230 229 246 262 255 146 162 159 193 175 148 139 138 168 174 182 184 176 178 178 183 191 189 196 201 200 202 211 212 215 221 219 218 230 227 225
302 271 241 251 250 222 203 227 247 255 253 252 236 177 151 249 193 158 168 146 156 168 162 178 180 174 180 184 180 187 181 188 194 198 202 211 212 213 220 221 227 230 227 236
253 256 264 263 266 264 260 203 224 236 245 264 260 240 193 190 184 162 162 161 160 159 169 167 182 169 182 183 180 188 187 186 198 195 212 218 211 217 225 231 230 231 230 231
273 274 262 258 264 263 255 259 209 221 232 245 259 230 211 352 130 153 163 167 166 166 166 169 172 168 180 180 185 185 186 188 195 196 202 209 212 212 218 226 234 235 234 235
289 281 266 247 251 255 256 244 241 253 246 232 251 259 156 174 176 165 168 173 167 167 162 166 160 168 181 177 183 185 190 188 192 195 200 199 200 209 214 218 225 231 238 235
247 255 262 260 251 250 248 269 244 246 246 236 246 265 327 161 176 165 172 176 166 165 163 161 165 165 172 174 178 181 185 188 189 195 194 193 197 207 217 227 236 238 240 243
238 244 264 249 248 246 254 241 234 247 253 270 253 246 153 44 252 159 175 175 167 160 159 163 158 162 168 153 156 164 169 178 185 194 204 210 214 219 224 228 237 246 251 253
244 220 232 259 236 247 235 243 243 226 241 328 298 248 255 165 199 185 174 171 164 160 159 150 150 146 142 149 154 156 161 169 180 187 194 199 204 211 210 224 226 235 243 256
239 214 190 236 252 255 285 183 116 262 200 86 35 335 284 213 250 328 174 168 160 159 157 150 151 150 152 153 154 156 159 168 175 177 181 185 188 198 209 222 239 247 255 271
272 139 238 219 220 243 34 3 258 16 102 102 73 40 7 340 297 170 145 150 155 161 152 158 155 149 151 152 154 154 163 162 166 171 176 182 187 209 191 209 226 233 250 261
266 155 185 290 215 253 308 214 328 61 317 73 79 54 5 10 272 240 188 171 162 161 158 164 153 153 153 155 155 158 153 166 174 179 187 197 211 222 243 248 250 256 252 248
301 323 259 156 233 319 318 223 53 35 343 56 43 54 354 13 302 230 177 169 156 160 168 162 155 158 154 157 160 162 164 172 186 199 213 223 229 228 242 250 253 252 274 285
294 348 260 256 216 354 317 48 41 32 27 16 351 64 6 341 341 291 199 171 163 164 172 159 163 157 157 158 157 155 161 175 193 207 221 232 238 215 252 249 267 275 292 286
268 270 265 266 338 108 336 320 338 38 20 27 1 339 356 307 27 282 244 174 166 171 170 159 161 154 153 153 153 151 156 165 179 185 205 233 245 259 256 271 271 234 238 249